“In life, you're either a passenger or a pilot. It’s your choice.”

WELCOME TO YOUR AVIATION DREAM!

What's new Up There Icon

WHAT’S NEW HERE?

4000+ aviation terms, acronyms and definitions!
Make your study a little easier with the aviation glossaries that gather over 4000 terms and acronyms extracted from weather, communications, technical and more general topics…
Partnership Icon

PARTNESHIP ANNOUNCEMENT

I am proud to announce a partnership with nizul Logo, study partner of every pilot who wants to consolidate their ground school knowledge and master their written examination.

Try Me Icon

ALL YOURS FOR 30 MINUTES!

Not sure you’d get along with a freelance instructor? How about giving it a try with a 30 minute flight?
My treat! All free.

Resources Tool Box

STUDENT RESOURCES

As a registered student training with me, you get access to a whole lot of files, tools, documents, aviation glossaries, videos, quizzes, sample tests, etc… 

Control Tower Icon

QUESTIONS? CHECK F.A.Q.

In aviation, the only stupid question is the one you didn’t ask. And there is a big chance yours has already been answered in the FAQ. Check it out!

Brain Icon

ARE YOU WIRED FOR FLYING?

Flying an aircraft is usually not the most difficult part of the “problem” and it takes a certain mindset to deal with the other aspects of a flight. Find out wether…

THEY DID IT!

Meet those who refused to be the passengers of their lives, and learn about their experience.

QUICK FACTS

Aviation is a world of serious numbers.
Here are my own, and they count as much as the other ones.

0
YEARS OF
WISDOM
0
YEARS OF
SKY FUN
0
AMAZING
STUDENTS
0
HOURS OF
PURE EXCITEMENT

Grow some wings,
Come fly with me!

Vancouver Island Weather

METARs and TAFs.
VICTORIA INTL (CYYJ)
METAR:

CYYJ 250621Z 15007KT 10SM SCT009 BKN020 BKN028 BKN055 04/03 A2968 RMK SC3SC3SC1SC1 SC TR SLP052

TAF:

TAF TAF CYYJ 250538Z 2506/2606 VRB03KT 6SM -RA BR SCT006 BKN015 OVC030 TEMPO 2506/2509 3SM -RA BR BKN006 OVC015 FM250900 18008KT P6SM SCT012 BKN025 OVC040 TEMPO 2509/2518 4SM -SHRA BR SCT008 BKN012 OVC025 FM251800 18010G20KT P6SM SCT020 BKN050 TEMPO 2518/2606 5SM -SHRA BR BKN020 BKN050 RMK NXT FCST BY 251200Z

NANAIMO (CYCD)
METAR:

CYCD 250500Z 30002KT 1 1/2SM -RASN BR OVC006 01/01 A2971 RMK SF8 CIG RAG LAST STFD OBS/NEXT 251400Z SLP063

TAF:

TAF CYCD 241738Z 2418/2505 09006KT P6SM -RA OVC006 TEMPO 2418/2420 4SM -RA BR OVC004 FM242000 08006KT P6SM -RA OVC008 TEMPO 2420/2502 4SM -RA BR OVC005 FM250200 VRB03KT 6SM -RA BR OVC008 TEMPO 2502/2505 1SM -RASN BR OVC004 RMK NXT FCST BY 250000Z

LONG BEACH (CYAZ)
METAR:

CYAZ 250100Z 34004KT 300V010 15SM -SHRA FEW016 BKN056 BKN090 05/03 A2964 RMK CU2SC4AC1 AC TR VRY LGT PCPN LAST STFD OBS/NXT 251500UTC SLP038

TAF:

TAF CYAZ 241839Z 2419/2501 31008KT P6SM SCT015 OVC030 TEMPO 2419/2501 5SM -SHRA BR FEW006 BKN015 RMK NXT FCST WILL BE ISSUED AT 251645Z

For more in-depth weather information, please, check Collaborative Flight Planning Service

For all Runway conditions in CYYJ, please check

IIDS Web View

Windy’s Forecast & Observations